User: anonymous   Login
Location: Larrial
(48.2758°N, 4.5331°W)
Time: 11:19:47
(UTC+00:00)
Language:

Cosmos 2341 Rocket - Orbit

View from above orbital plane
View from above orbital plane
View from above satellite
View from above satellite

Ground track
Ground track

The orbit data is extracted from the following two-line orbital elements,

1 24773U 97017B   20184.77728524 +.00000010 +00000-0 -59197-5 0  9992
2 24773 082.9219 269.6403 0025802 091.1949 023.3312 13.73653267163227
Epoch (UTC): 02 July 2020 18:39:17
Eccentricity: 0.0025802
inclination: 82.9219°
perigee height: 967 km
apogee height: 1005 km
right ascension of ascending node: 269.6403°
argument of perigee: 91.1949°
revolutions per day: 13.73653267
mean anomaly at epoch: 23.3312°
orbit number at epoch: 16322

The dashed part of the orbit path shows where the satellite is in the earth's shadow,  

DLR